Weather History for Provincetown, MA

Change the Weather History Date:

Monday, December 31, 2012

  Actual Average Record
Temperature  
Mean Temperature 32 °F -  
Max Temperature 37 °F 37 °F 66 °F (1951)
Min Temperature 26 °F 27 °F 15 °F (1998)
Degree Days  
Heating Degree Days 34    
Moisture  
Dew Point 22 °F    
Average Humidity 68    
Maximum Humidity 80    
Minimum Humidity 59    
Precipitation  
Precipitation 0.00 in - - ()
Sea Level Pressure  
Sea Level Pressure 29.94 in    
Wind  
Wind Speed 23 mph (West)    
Max Wind Speed 34 mph    
Max Gust Speed 52 mph    
Visibility 10 miles    
Events      
Averages and records for this station are not official NWS values.
T = Trace of Precipitation, MM = Missing Value Source: NWS Daily Summary

Daily Weather History Graph

Daily Weather History Graph

Search for Another Location

Airport:

Trip Planner

Search our weather history database for the weather conditions in past years. The results will help you decide how hot, cold, wet, or windy it might be!

Date:

Astronomy

Dec. 31, 2012 Rise Set
Actual Time 7:09 AM EST 4:19 PM EST
Civil Twilight 6:37 AM EST 4:51 PM EST
Nautical Twilight 6:02 AM EST 5:26 PM EST
Astronomical Twilight 5:28 AM EST 6:00 PM EST
Moon 7:50 PM EST (12/31) 8:45 AM EST (12/31)
Length of Visible Light 10h 13m
Length of Day
9h 10m
Waning Gibbous, 90% of the Moon is Illuminated
Dec 31
Waning Gibbous
Jan 4
Last Quarter
Jan 11
New
Jan 18
First Quarter
Jan 26
Full

Hourly Weather History & Observations

Time (EST) Temp. Windchill Dew Point Humidity Pressure Visibility Wind Dir Wind Speed Gust Speed Precip Events Conditions
12:15 AM 28.4 °F 12.7 °F 15.8 °F 59% 29.94 in 10.0 mi NW 29.9 mph 51.8 mph N/A   Clear
12:35 AM 26.6 °F 9.3 °F 15.8 °F 64% 29.94 in 10.0 mi NW 34.5 mph 46.0 mph N/A   Clear
12:55 AM 26.6 °F 10.0 °F 15.8 °F 64% 29.94 in 10.0 mi NW 31.1 mph 46.0 mph N/A   Clear
1:15 AM 26.6 °F 10.8 °F 15.8 °F 64% 29.95 in 10.0 mi WNW 27.6 mph 39.1 mph N/A   Clear
1:55 AM 26.6 °F 10.8 °F 15.8 °F 64% 29.97 in 10.0 mi WNW 27.6 mph 38.0 mph N/A   Clear
2:15 AM 26.6 °F 10.3 °F 15.8 °F 64% 29.97 in 10.0 mi NW 29.9 mph 38.0 mph N/A   Clear
2:55 AM 28.4 °F 13.8 °F 15.8 °F 59% 29.99 in 10.0 mi NW 25.3 mph 38.0 mph N/A   Partly Cloudy
3:55 AM 28.4 °F 14.7 °F 15.8 °F 59% 30.01 in 10.0 mi WNW 21.9 mph 34.5 mph N/A   Clear
4:35 AM 26.6 °F 14.3 °F 15.8 °F 64% 30.01 in 10.0 mi West 16.1 mph 23.0 mph N/A   Partly Cloudy
5:15 AM 26.6 °F 14.7 °F 17.6 °F 69% 30.01 in 10.0 mi West 15.0 mph 20.7 mph N/A   Partly Cloudy
5:35 AM 26.6 °F 14.7 °F 17.6 °F 69% 30.02 in 10.0 mi West 15.0 mph 20.7 mph N/A   Partly Cloudy
5:55 AM 26.6 °F 14.3 °F 17.6 °F 69% 30.03 in 10.0 mi West 16.1 mph 28.8 mph N/A   Clear
6:15 AM 26.6 °F 12.4 °F 15.8 °F 64% 30.03 in 10.0 mi West 21.9 mph 25.3 mph N/A   Clear
6:35 AM 26.6 °F 12.7 °F 17.6 °F 69% 30.04 in 10.0 mi West 20.7 mph 27.6 mph N/A   Clear
7:15 AM 26.6 °F 12.4 °F 17.6 °F 69% 30.04 in 10.0 mi West 21.9 mph 28.8 mph N/A   Clear
7:35 AM 28.4 °F 14.4 °F 19.4 °F 69% 30.04 in 10.0 mi West 23.0 mph 27.6 mph N/A   Clear
7:55 AM 28.4 °F 15.1 °F 19.4 °F 69% 30.03 in 10.0 mi West 20.7 mph 27.6 mph N/A   Clear
8:15 AM 28.4 °F 14.4 °F 19.4 °F 69% 30.04 in 10.0 mi West 23.0 mph 27.6 mph N/A   Clear
8:55 AM 28.4 °F 14.7 °F 19.4 °F 69% 30.05 in 10.0 mi West 21.9 mph 29.9 mph N/A   Clear
9:15 AM 30.2 °F 17.1 °F 21.2 °F 69% 30.04 in 10.0 mi West 21.9 mph 31.1 mph N/A   Clear
9:35 AM 30.2 °F 17.1 °F 23.0 °F 75% 30.03 in 10.0 mi West 21.9 mph 26.5 mph N/A   Clear
9:55 AM 30.2 °F 17.1 °F 24.8 °F 80% 30.04 in 10.0 mi West 21.9 mph 27.6 mph N/A   Clear
10:15 AM 30.2 °F 16.8 °F 21.2 °F 69% 30.03 in 10.0 mi West 23.0 mph 31.1 mph N/A   Scattered Clouds
10:55 AM 32.0 °F 19.2 °F 24.8 °F 75% 30.02 in 10.0 mi West 23.0 mph 32.2 mph N/A   Overcast
11:35 AM 32.0 °F 19.2 °F 24.8 °F 75% 30.00 in 10.0 mi West 23.0 mph 27.6 mph N/A   Overcast
11:55 AM 32.0 °F 19.8 °F 24.8 °F 75% 29.98 in 10.0 mi West 20.7 mph 27.6 mph N/A   Overcast
12:15 PM 33.8 °F 21.9 °F 26.6 °F 75% 29.97 in 10.0 mi West 21.9 mph 28.8 mph N/A   Overcast
12:55 PM 33.8 °F 22.2 °F 21.2 °F 60% 29.94 in 10.0 mi West 20.7 mph 27.6 mph N/A   Partly Cloudy
1:16 PM 33.8 °F 22.2 °F 24.8 °F 70% 29.94 in 10.0 mi West 20.7 mph 25.3 mph N/A   Clear
1:35 PM 33.8 °F 21.6 °F 24.8 °F 70% 29.93 in 10.0 mi West 23.0 mph 28.8 mph N/A   Partly Cloudy
2:35 PM 33.8 °F 23.2 °F 24.8 °F 70% 29.93 in 10.0 mi West 17.3 mph 21.9 mph N/A   Overcast
3:35 PM 33.8 °F 22.8 °F 24.8 °F 70% 29.93 in 10.0 mi West 18.4 mph 24.2 mph N/A   Overcast
3:36 PM 33.8 °F 22.8 °F 24.8 °F 70% 29.93 in 10.0 mi West 18.4 mph 24.2 mph N/A   Overcast
3:55 PM 33.8 °F 22.8 °F 24.8 °F 70% 29.92 in 10.0 mi West 18.4 mph 24.2 mph N/A   Overcast
4:15 PM 33.8 °F 23.5 °F 23.0 °F 65% 29.92 in 10.0 mi West 16.1 mph 23.0 mph N/A   Overcast
4:55 PM 33.8 °F 23.9 °F 24.8 °F 70% 29.92 in 10.0 mi WNW 15.0 mph 19.6 mph N/A   Mostly Cloudy
5:55 PM 33.8 °F 26.4 °F 24.8 °F 70% 29.89 in 10.0 mi West 9.2 mph - N/A   Clear
7:35 PM 33.8 °F 23.2 °F 24.8 °F 70% 29.88 in 10.0 mi West 17.3 mph 23.0 mph N/A   Clear
8:15 PM 35.6 °F 24.8 °F 24.8 °F 65% 29.87 in 10.0 mi West 19.6 mph 25.3 mph N/A   Clear
8:35 PM 35.6 °F 25.5 °F 24.8 °F 65% 29.86 in 10.0 mi West 17.3 mph 24.2 mph N/A   Partly Cloudy
8:55 PM 35.6 °F 26.2 °F 24.8 °F 65% 29.84 in 10.0 mi West 15.0 mph 19.6 mph N/A   Scattered Clouds
9:15 PM 35.6 °F 24.8 °F 26.6 °F 70% 29.83 in 10.0 mi West 19.6 mph 25.3 mph N/A   Scattered Clouds
9:55 PM 35.6 °F 25.5 °F 26.6 °F 70% 29.83 in 10.0 mi West 17.3 mph 26.5 mph N/A   Scattered Clouds
10:15 PM 35.6 °F 25.5 °F 26.6 °F 70% 29.82 in 10.0 mi West 17.3 mph 23.0 mph N/A   Overcast
10:35 PM 35.6 °F 25.2 °F 24.8 °F 65% 29.81 in 10.0 mi West 18.4 mph 24.2 mph N/A   Mostly Cloudy
10:55 PM 35.6 °F 25.2 °F 26.6 °F 70% 29.80 in 10.0 mi West 18.4 mph 25.3 mph N/A   Mostly Cloudy
11:15 PM 35.6 °F 24.8 °F 26.6 °F 70% 29.79 in 10.0 mi West 19.6 mph 26.5 mph N/A   Overcast
11:35 PM 37.4 °F 27.5 °F 24.8 °F 60% 29.78 in 10.0 mi West 18.4 mph 25.3 mph N/A   Overcast
11:55 PM 37.4 °F 27.5 °F 24.8 °F 60% 29.78 in 10.0 mi West 18.4 mph 25.3 mph N/A   Overcast